Location: Aillé
(46.6903°N, 0.4115°E)
Time: 08:17:34
(UTC+00:00)

Daily predictions for brighter satellites

Satellite Brightness Start Highest point End
(mag) Time Altitude Azimuth Time Altitude Azimuth Time Altitude Azimuth
Cosmos 2154 Rocket 4.2 20:05:11 10° S 20:11:33 89° W 20:17:57 10° N
ISS -3.1 20:12:52 10° WNW 20:16:08 52° NNE 20:19:23 10° E
Meteor 2-1 Rocket 4.2 20:13:07 10° N 20:18:44 85° E 20:24:14 10° SSE
Cosmos 220 Rocket 4.3 20:17:03 10° NNW 20:21:12 64° WSW 20:25:20 10° S
BREEZE-M DEB (TANK) 2.8 20:17:32 10° WNW 20:21:40 42° NNE 20:23:45 10° E
COSMOS 2406 4.4 20:18:00 10° N 20:22:55 29° NE 20:27:49 10° ESE
ATLAS CENTAUR R/B 4.1 20:25:27 10° W 20:26:51 11° WSW 20:28:15 10° SW
GP-B 4.0 20:25:00 10° N 20:29:16 52° W 20:33:33 10° SSW
Cosmos 2298 Rocket 4.0 20:25:24 10° SSW 20:30:43 82° ESE 20:36:04 10° NNE
Cosmos 1606 2.6 20:27:53 10° NNW 20:31:26 79° W 20:34:55 10° S
MetOp-B 4.2 20:26:58 10° SSE 20:32:19 76° ENE 20:37:41 10° NNW
Meteor 1-11 4.4 20:29:24 10° SSW 20:35:06 82° W 20:40:46 10° N
USA 307 3.6 20:34:06 10° NW 20:37:51 42° NNE 20:41:27 10° E
CZ-4 R/B 4.2 20:37:32 10° WSW 20:39:38 14° W 20:41:44 10° WNW
CZ-4C R/B 3.8 20:35:10 10° NNW 20:41:34 41° NE 20:49:19 10° ESE
Cosmos 1833 Rocket 3.2 20:36:57 10° NNW 20:42:30 58° WSW 20:48:00 10° S
Cosmos 2366 rocket 4.2 20:36:50 10° SSE 20:42:45 53° E 20:48:41 10° NNE
Cosmos 1536 Rocket 3.9 20:38:40 10° SSE 20:42:45 43° E 20:46:51 10° NNE
ULPM Upper Stage 3.0 20:40:39 10° NW 20:45:00 62° NE 20:48:42 14° SE
Cosmos 1269 Rocket 4.5 20:40:32 10° NNW 20:45:42 49° ENE 20:50:09 14° SE
NOSS 3-1 (A) 3.3 20:41:56 10° S 20:46:30 44° ESE 20:51:54 10° NE
SL-8 Rocket 4.1 20:41:13 10° S 20:47:25 66° E 20:53:42 10° NNE
ERS-1 Rocket 3.0 20:49:38 10° SSE 20:54:34 79° ENE 20:59:35 10° NNW
Cosmos 614 Rocket 4.2 20:50:32 10° NNW 20:55:34 68° WSW 21:00:29 10° S
Cosmos 2084 Rocket 3.5 20:59:09 10° NW 21:03:04 61° SW 21:05:50 18° SSE
Okean O Rocket 3.8 21:01:17 10° SW 21:04:40 22° W 21:08:04 10° NW
Landsat 4 4.5 21:05:30 19° ESE 21:07:18 32° ENE 21:10:24 10° N
Gbstr 26 Del rocket 3.7 21:03:26 10° WNW 21:07:53 61° NNE 21:13:13 10° E
Lacrosse 5 4.0 21:04:47 10° NW 21:08:58 25° N 21:13:10 10° ENE
Cosmos 864 Rocket 4.5 21:06:08 10° S 21:12:22 86° E 21:18:34 10° N
Resurs 01 Rocket 4.4 21:11:17 10° WSW 21:13:18 13° W 21:15:21 10° WNW
Cosmos 2082 Rocket 2.2 21:08:02 10° NNW 21:13:41 77° ENE 21:17:46 19° SSE
ATLAS 3B R/B 2.8 21:09:02 10° SSW 21:16:02 66° ESE 21:23:36 10° NE
Cosmos 2369 Rocket 3.9 21:15:10 14° ESE 21:16:03 14° E 21:18:53 10° ENE
USA 305 2.3 21:12:40 10° WNW 21:16:26 87° SW 21:18:09 27° SE
USA 229 DEB 4.3 21:13:01 16° SSE 21:16:46 28° ESE 21:22:10 10° NE
USA 229 4.3 21:13:14 16° SSE 21:16:52 28° ESE 21:22:14 10° ENE
Cosmos 1943 Rocket 2.1 21:12:21 10° SSW 21:17:58 73° ESE 21:23:35 10° NNE
Spot 2 Rocket 3.5 21:14:27 15° SSE 21:18:39 87° WSW 21:23:47 10° NNW
Cosmos 2278 Rocket 2.4 21:13:38 10° SSW 21:19:17 74° WNW 21:24:58 10° NNE
Terra 2.1 21:20:35 14° S 21:24:34 65° WSW 21:29:17 10° NNW
Cosmos 2218 Rocket 4.2 21:26:05 10° SSW 21:32:13 71° W 21:38:26 10° N
SPOT 3 Rocket 3.6 21:28:25 18° S 21:32:18 80° WSW 21:37:33 10° NNW
NOSS 8 (E) 4.4 21:29:25 10° NW 21:32:33 83° SW 21:34:12 31° SSE
USA 215 3.3 21:28:45 20° SE 21:33:33 77° SW 21:40:08 10° NW
USA 290 3.8 21:31:20 10° SW 21:34:17 36° WNW 21:37:15 10° N
Cosmos 2228 4.4 21:30:59 10° NNW 21:34:43 33° W 21:38:27 10° SSW
Cosmos 2251 Rocket 4.5 21:30:37 10° N 21:35:33 36° ENE 21:38:33 20° ESE
Meteor 2-13 Rocket 4.5 21:31:00 10° N 21:37:13 88° W 21:41:43 20° S
MOS 1 Rocket 4.1 21:34:52 13° SSW 21:38:32 43° W 21:42:40 10° NNW
ARIANE 5 R/B 4.1 21:39:29 18° ESE 21:41:27 25° ENE 21:45:06 10° N
Cosmos 1892 Rocket 3.7 21:39:30 28° SSE 21:41:37 54° E 21:45:56 10° NNE
Cosmos 1238 Rocket 4.3 21:38:33 10° NNE 21:41:59 26° ENE 21:43:23 22° ESE
Cosmos 192 4.3 21:38:40 17° S 21:42:29 66° ESE 21:47:24 10° NNE
SL-8 R/B 3.6 21:37:59 10° SW 21:42:43 63° SSE 21:47:29 10° ENE
Cosmos 1812 2.6 21:39:33 10° N 21:43:04 62° E 21:44:11 39° SE
Lacrosse 5 rocket 1.4 21:46:15 39° SSE 21:46:36 40° SE 21:50:12 10° ENE
Ariane Rocket 3.5 21:43:06 18° S 21:46:46 55° W 21:51:45 10° NNW
BREEZE-M DEB (TANK) 3.4 21:49:46 10° WNW 21:52:18 65° NNE 21:57:46 10° E
ISS -2.9 21:49:44 10° WNW 21:52:47 34° SW 21:53:03 33° SSW
Landsat 5 3.5 21:48:58 10° NNE 21:53:20 69° ESE 21:55:18 31° S
Cosmos 1023 Rocket 4.4 21:48:54 10° NNW 21:54:02 88° ENE 21:56:34 31° SSE
Cosmos 1726 Rocket 3.5 21:50:25 10° N 21:54:45 81° W 21:56:43 32° S
Cosmos 1606 Rocket 3.9 21:51:45 10° NNW 21:55:59 58° W 21:58:16 25° SSW
Cosmos 2058 3.0 21:55:22 38° SSE 21:56:35 54° E 22:00:34 10° NNE
Cosmos 1821 Rocket 4.3 21:56:43 12° SSW 22:02:37 70° W 22:09:01 10° N
Geosat 4.0 21:58:06 10° NE 22:03:04 60° ESE 22:05:42 27° S
Cosmos 1656 Rocket 3.9 22:01:48 31° SSE 22:03:56 46° ESE 22:09:14 10° NE
Cosmos 1727 Rocket 4.3 21:58:34 10° NNW 22:04:49 66° W 22:09:00 22° S
COSMOS 2406 3.6 22:01:59 10° NW 22:07:31 54° WSW 22:10:26 27° S
CENTAUR R/B 4.1 22:00:08 10° NW 22:07:42 44° NE 22:16:06 11° ESE
BREEZE-M DEB (TANK) 4.1 22:01:47 10° WNW 22:09:35 28° WSW 22:11:08 23° SSW
USA 307 2.8 22:07:22 10° WNW 22:11:06 47° SW 22:11:24 46° SSW
Alouette 2 Rocket 4.1 22:12:52 35° S 22:14:55 73° E 22:21:40 10° NNE
MetOp-A 3.7 22:14:53 37° S 22:16:26 64° WSW 22:20:29 10° NNW
Cosmos 2285 Rocket 4.5 22:11:44 10° NNW 22:18:01 52° ENE 22:21:12 28° SE
Cosmos 407 Rocket 3.4 22:16:29 10° NNW 22:21:43 87° WSW 22:23:40 40° SSE
Cosmos 1605 Rocket 4.4 22:22:38 33° SE 22:24:51 47° E 22:30:44 10° NNE
COSMOS 2455 3.7 22:19:47 10° NNW 22:25:34 44° NE 22:29:02 22° ESE
Cosmos 1140 Rocket 3.9 22:20:48 10° NNW 22:25:47 53° WSW 22:27:48 33° SSW
CZ-4C R/B 3.1 22:23:20 10° NW 22:30:34 69° SW 22:34:57 31° SSE
Milstar 3 4.4 22:26:06 10° SW 22:39:43 17° SE 22:43:32 10° ESE
Cosmos 1371 Rocket 4.4 22:33:40 40° SE 22:34:44 46° ESE 22:39:48 10° NNE
Cosmos 1271 Rocket 2.5 22:36:00 72° SE 22:36:12 75° E 22:40:00 10° NNE
Cosmos-2242 2.9 22:32:25 10° N 22:36:36 66° E 22:37:13 56° SE
PSLV R/B 4.1 22:34:11 10° NNE 22:38:06 50° E 22:38:11 50° ESE
Exosat Rocket 4.0 22:35:13 10° NNW 22:40:22 52° ENE 22:42:08 35° ESE
Cosmos 2297 3.6 22:38:58 31° SSW 22:41:52 85° ESE 22:47:37 10° NNE
Cosmos 2058 Rocket 3.7 22:38:32 10° NNW 22:42:44 47° W 22:43:57 37° SW
CZ-2C R/B 3.7 22:38:43 10° NNE 22:43:26 90° SSE 22:44:51 46° SSW
Meteor 2-19 Rocket 4.4 22:37:19 10° N 22:43:30 85° W 22:45:58 39° S
Cosmos 44 Rocket 4.5 22:46:39 28° E 22:46:39 28° E 22:50:21 10° NE
SJ 16-02 3.9 22:50:31 10° NNE 22:52:09 12° NE 22:53:46 10° ENE
Lacrosse 5 3.1 22:48:18 10° NW 22:53:04 39° NNE 22:57:14 13° E
Cosmos 1812 Rocket 3.7 22:48:47 10° N 22:53:13 61° ENE 22:53:51 54° ESE
Gbstr 26 Del rocket 3.8 22:49:49 10° WNW 22:54:34 49° SW 22:55:25 45° S
Cosmos 1602 Rocket 3.5 22:54:51 59° ESE 22:55:10 61° E 22:59:26 10° NNE
Cosmos 2082 Rocket 4.2 22:53:29 10° WNW 22:57:04 17° W 22:59:36 13° SW
Meteor 2-3 Rocket 3.6 22:56:57 44° S 22:58:51 84° E 23:04:31 10° NNE
Gblst 52 Del rocket 4.2 22:53:18 10° WSW 22:59:01 80° NNW 23:04:33 10° ENE
Cosmos 2123 Rocket 4.5 22:52:59 10° NNW 22:59:05 54° W 23:01:58 31° SSW
Cosmos 2369 Rocket 2.1 22:56:53 37° SSW 22:59:12 90° ESE 23:04:52 10° NNE
Cosmos 1954 Rocket 3.9 22:54:58 10° NNW 23:00:09 83° ENE 23:01:25 53° SSE
Cosmos 1782 2.9 22:58:05 10° NNW 23:01:49 56° W 23:01:56 56° WSW
Cosmos 1943 Rocket 4.4 22:57:52 10° W 23:02:16 23° NW 23:06:42 10° N
Lacrosse 4 Rocket 1.3 23:04:32 67° WSW 23:05:00 80° WNW 23:09:10 10° NNE
Cosmos 1624 Rocket 3.9 23:05:33 51° S 23:06:52 82° ESE 23:12:10 10° NNE
USA 81 4.0 23:01:46 10° N 23:07:04 86° W 23:08:23 52° S
USA 229 DEB 3.9 23:00:58 10° SW 23:07:05 66° NW 23:13:53 10° NE
USA 229 3.8 23:01:04 10° SW 23:07:11 66° NW 23:13:59 10° NE
ATLAS 3B R/B 4.2 23:00:27 10° WSW 23:07:17 41° NW 23:14:33 10° NE
Cosmos 1420 Rocket 4.0 23:05:36 41° SSW 23:07:29 80° WNW 23:12:47 10° NNE
Cosmos 1862 3.1 23:10:26 82° NE 23:10:26 82° NE 23:14:11 10° N
Cosmos 1515 4.4 23:09:00 10° NNW 23:12:00 39° W 23:12:00 39° W
SeaSat 1 3.2 23:11:06 31° ESE 23:12:57 44° NE 23:17:37 10° NNW
H-2A R/B 2.1 23:14:16 85° NNW 23:14:16 85° NNW 23:17:58 10° NNW
Cosmos 1758 Rocket 3.6 23:14:35 61° SW 23:15:09 70° W 23:19:28 10° N
Cosmos 1626 Rocket 4.2 23:14:21 39° WSW 23:15:20 47° WNW 23:19:30 10° N
Cosmos 2151 4.2 23:15:32 30° E 23:15:32 30° E 23:19:04 10° NNE
Cosmos 1461 2.7 23:12:32 10° NW 23:16:06 76° NW 23:16:06 76° NW
Cosmos 1933 3.6 23:13:13 10° NNW 23:17:04 54° W 23:17:08 54° W
Cosmos 1809 Rocket 4.4 23:11:24 10° N 23:17:37 83° E 23:19:35 47° SSE
ARIANE 5 R/B 3.5 23:16:57 36° WSW 23:17:38 39° W 23:21:51 10° NNW
Cosmos 2221 2.8 23:14:22 10° N 23:18:33 51° ENE 23:18:49 50° E
PSLV R/B 4.3 23:14:35 10° NNE 23:18:48 40° E 23:18:48 40° E
Cosmos 1238 Rocket 4.3 23:16:11 10° NNW 23:19:43 30° W 23:20:30 28° WSW
Cosmos 2297 Rocket 4.4 23:16:32 10° N 23:20:29 19° NE 23:24:24 10° E
Cosmos 1452 Rocket 4.3 23:21:54 34° ESE 23:22:08 34° ESE 23:26:52 10° NE
Cosmos 2056 Rocket 3.6 23:21:02 44° SW 23:22:42 74° WNW 23:27:55 10° NNE
Lacrosse 5 rocket 2.6 23:21:22 10° W 23:24:53 37° NNW 23:28:34 10° NE
SL-8 R/B 3.9 23:20:22 10° W 23:25:11 72° N 23:30:00 10° E
Meteor 1-26 Rocket 4.2 23:22:06 10° NNW 23:27:44 76° W 23:29:15 51° S
ATLAS CENTAUR R/B 4.2 23:28:31 22° ESE 23:28:31 22° ESE 23:33:35 10° ENE
CRYOSAT 2 4.4 23:24:18 10° N 23:29:10 72° W 23:30:06 55° SW
ALOS 2 2.4 23:29:16 74° SSW 23:29:35 80° WSW 23:34:00 10° NNW
SL-27 R/B 4.1 23:27:04 10° NNW 23:28:24 24° NW 23:28:24 24° NW
Cosmos 2263 4.4 23:29:22 36° SW 23:31:45 71° WNW 23:37:32 10° NNE
Spot 4 4.1 23:31:16 51° SW 23:31:59 57° W 23:36:46 10° NNW
Cosmos 1340 Rocket 3.4 23:34:52 10° N 23:38:36 46° ENE 23:38:36 46° ENE
Cosmos 676 Rocket 4.1 23:35:05 10° NNW 23:40:09 56° WSW 23:40:50 52° SW
Meteor 2-21 4.4 23:34:09 10° N 23:40:21 87° W 23:42:09 50° S
USA 59 Rocket 1.4 23:42:37 20° NE 23:42:37 20° NE 23:43:44 10° NE
Okean 1-7 Rocket 4.3 23:40:09 40° WSW 23:40:53 44° WNW 23:45:07 10° N
Cosmos 1666 3.6 23:48:24 37° NW 23:48:24 37° NW 23:51:10 10° N
SL-19 R/B 4.5 23:43:16 10° NNE 23:49:49 87° ESE 23:51:42 48° SSW
Cosmos 1842 Rocket 4.2 23:47:00 10° N 23:51:19 46° ENE 23:51:48 44° E
Cosmos 1459 Rocket 4.0 23:50:37 49° SSE 23:52:26 75° E 23:58:43 10° NNE
Cosmos 1076 Rocket 4.0 23:52:47 48° E 23:52:47 48° E 23:56:57 10° NNE
